Time,TemperatureF,DewpointF,PressureIn,WindDirection,WindDirectionDegrees,WindSpeedMPH,WindSpeedGustMPH,Humidity,HourlyPrecipIn,Conditions,Clouds,dailyrainin,SoftwareType,DateUTC
2013-08-19 00:05:00,62.7,60.0,30.10,ENE,64,0.0,2.0,89,0.00,,,0.00,weatherlink.com 1.10,2013-08-19 05:05:00,
2013-08-19 00:20:00,61.5,58.0,30.09,ENE,64,0.0,1.0,89,0.00,,,0.00,weatherlink.com 1.10,2013-08-19 05:20:00,
2013-08-19 00:35:00,61.1,59.0,30.09,ENE,64,0.0,1.0,91,0.00,,,0.00,weatherlink.com 1.10,2013-08-19 05:35:00,
2013-08-19 00:50:00,61.5,59.0,30.09,ENE,64,0.0,0.0,92,0.00,,,0.00,weatherlink.com 1.10,2013-08-19 05:50:00,
2013-08-19 01:05:00,61.7,59.0,30.09,ENE,64,0.0,2.0,92,0.00,,,0.00,weatherlink.com 1.10,2013-08-19 06:05:00,
2013-08-19 01:20:00,61.8,60.0,30.08,ENE,64,0.0,0.0,92,0.00,,,0.00,weatherlink.com 1.10,2013-08-19 06:20:00,
2013-08-19 01:35:00,61.2,59.0,30.08,ENE,64,0.0,1.0,92,0.00,,,0.00,weatherlink.com 1.10,2013-08-19 06:35:00,
2013-08-19 01:50:00,60.7,58.0,30.08,ENE,64,0.0,0.0,92,0.00,,,0.00,weatherlink.com 1.10,2013-08-19 06:50:00,
2013-08-19 02:05:00,60.4,58.0,30.08,ENE,64,0.0,0.0,92,0.00,,,0.00,weatherlink.com 1.10,2013-08-19 07:05:00,
2013-08-19 02:20:00,58.8,56.0,30.08,ENE,64,0.0,0.0,91,0.00,,,0.00,weatherlink.com 1.10,2013-08-19 07:20:00,
2013-08-19 02:35:00,58.1,56.0,30.08,ENE,64,0.0,0.0,92,0.00,,,0.00,weatherlink.com 1.10,2013-08-19 07:35:00,
2013-08-19 02:50:00,58.2,56.0,30.08,ENE,64,0.0,0.0,93,0.00,,,0.00,weatherlink.com 1.10,2013-08-19 07:50:00,
2013-08-19 03:05:00,58.0,56.0,30.08,ENE,64,0.0,0.0,93,0.00,,,0.00,weatherlink.com 1.10,2013-08-19 08:05:00,
2013-08-19 03:21:00,57.7,56.0,30.08,ENE,64,0.0,0.0,93,0.00,,,0.00,weatherlink.com 1.10,2013-08-19 08:21:00,
2013-08-19 03:36:00,57.2,55.0,30.08,ENE,64,0.0,0.0,93,0.00,,,0.00,weatherlink.com 1.10,2013-08-19 08:36:00,
2013-08-19 03:51:00,56.7,55.0,30.08,ENE,64,0.0,0.0,93,0.00,,,0.00,weatherlink.com 1.10,2013-08-19 08:51:00,
2013-08-19 04:06:00,56.0,54.0,30.08,ENE,64,0.0,0.0,93,0.00,,,0.00,weatherlink.com 1.10,2013-08-19 09:06:00,
2013-08-19 04:21:00,55.7,54.0,30.08,ENE,64,0.0,0.0,93,0.00,,,0.00,weatherlink.com 1.10,2013-08-19 09:21:00,
2013-08-19 04:36:00,55.3,53.0,30.08,ENE,64,0.0,0.0,93,0.00,,,0.00,weatherlink.com 1.10,2013-08-19 09:36:00,
2013-08-19 04:51:00,55.0,53.0,30.08,ENE,64,0.0,0.0,93,0.00,,,0.00,weatherlink.com 1.10,2013-08-19 09:51:00,
2013-08-19 05:06:00,54.8,53.0,30.09,ENE,64,0.0,0.0,93,0.00,,,0.00,weatherlink.com 1.10,2013-08-19 10:06:00,
2013-08-19 05:21:00,54.7,53.0,30.09,ENE,64,0.0,0.0,93,0.00,,,0.00,weatherlink.com 1.10,2013-08-19 10:21:00,
2013-08-19 05:36:00,54.5,53.0,30.09,ENE,64,0.0,0.0,94,0.00,,,0.00,weatherlink.com 1.10,2013-08-19 10:36:00,
2013-08-19 05:51:00,54.5,53.0,30.09,ENE,64,0.0,0.0,94,0.00,,,0.00,weatherlink.com 1.10,2013-08-19 10:51:00,
2013-08-19 06:06:00,54.6,53.0,30.09,ENE,64,0.0,0.0,94,0.00,,,0.00,weatherlink.com 1.10,2013-08-19 11:06:00,
2013-08-19 06:21:00,55.0,53.0,30.10,ENE,64,0.0,0.0,94,0.00,,,0.00,weatherlink.com 1.10,2013-08-19 11:21:00,
2013-08-19 06:36:00,55.5,54.0,30.10,ENE,64,0.0,0.0,94,0.00,,,0.00,weatherlink.com 1.10,2013-08-19 11:36:00,
2013-08-19 06:51:00,56.0,55.0,30.10,ENE,64,0.0,0.0,95,0.00,,,0.00,weatherlink.com 1.10,2013-08-19 11:51:00,
2013-08-19 07:06:00,57.2,56.0,30.11,ENE,64,0.0,0.0,95,0.00,,,0.00,weatherlink.com 1.10,2013-08-19 12:06:00,
2013-08-19 07:21:00,59.6,58.0,30.11,ENE,64,0.0,1.0,95,0.00,,,0.00,weatherlink.com 1.10,2013-08-19 12:21:00,
2013-08-19 07:36:00,62.0,61.0,30.11,ENE,64,0.0,0.0,95,0.00,,,0.00,weatherlink.com 1.10,2013-08-19 12:36:00,
2013-08-19 07:51:00,64.0,63.0,30.11,ENE,64,0.0,0.0,95,0.00,,,0.00,weatherlink.com 1.10,2013-08-19 12:51:00,
2013-08-19 08:06:00,65.3,64.0,30.11,ENE,76,0.0,2.0,95,0.00,,,0.00,weatherlink.com 1.10,2013-08-19 13:06:00,
2013-08-19 08:21:00,66.1,65.0,30.11,ESE,106,1.0,2.0,95,0.00,,,0.00,weatherlink.com 1.10,2013-08-19 13:21:00,
2013-08-19 08:36:00,68.4,67.0,30.11,ESE,106,0.0,1.0,95,0.00,,,0.00,weatherlink.com 1.10,2013-08-19 13:36:00,
2013-08-19 08:51:00,71.0,69.0,30.11,ESE,106,0.0,2.0,92,0.00,,,0.00,weatherlink.com 1.10,2013-08-19 13:51:00,
2013-08-19 09:06:00,73.8,67.0,30.10,South,172,0.0,2.0,80,0.00,,,0.00,weatherlink.com 1.10,2013-08-19 14:06:00,
2013-08-19 09:24:00,76.8,70.0,30.10,SW,225,0.0,2.0,79,0.00,,,0.00,weatherlink.com 1.10,2013-08-19 14:24:00,
2013-08-19 09:37:00,78.7,70.0,30.10,SW,227,0.0,2.0,74,0.00,,,0.00,weatherlink.com 1.10,2013-08-19 14:37:00,
2013-08-19 09:52:00,79.5,69.0,30.11,West,265,1.0,4.0,71,0.00,,,0.00,weatherlink.com 1.10,2013-08-19 14:52:00,
2013-08-19 10:07:00,80.8,65.0,30.11,West,268,0.0,3.0,59,0.00,,,0.00,weatherlink.com 1.10,2013-08-19 15:07:00,
2013-08-19 10:22:00,81.1,68.0,30.10,SW,219,0.0,4.0,64,0.00,,,0.00,weatherlink.com 1.10,2013-08-19 15:22:00,
2013-08-19 10:37:00,82.1,69.0,30.10,SW,234,2.0,4.0,64,0.00,,,0.00,weatherlink.com 1.10,2013-08-19 15:37:00,
2013-08-19 10:52:00,82.3,66.0,30.10,West,259,1.0,5.0,58,0.00,,,0.00,weatherlink.com 1.10,2013-08-19 15:52:00,
2013-08-19 11:07:00,82.4,66.0,30.10,NNW,342,0.0,5.0,58,0.00,,,0.00,weatherlink.com 1.10,2013-08-19 16:07:00,
2013-08-19 11:23:00,82.6,64.0,30.10,WSW,254,1.0,8.0,53,0.00,,,0.00,weatherlink.com 1.10,2013-08-19 16:23:00,
2013-08-19 11:37:00,82.9,64.0,30.10,WNW,299,1.0,6.0,54,0.00,,,0.00,weatherlink.com 1.10,2013-08-19 16:37:00,
2013-08-19 11:52:00,83.4,65.0,30.10,WNW,303,4.0,5.0,54,0.00,,,0.00,weatherlink.com 1.10,2013-08-19 16:52:00,
2013-08-19 12:07:00,83.2,65.0,30.09,SW,235,1.0,7.0,54,0.00,,,0.00,weatherlink.com 1.10,2013-08-19 17:07:00,
2013-08-19 12:22:00,82.5,63.0,30.08,NNE,19,1.0,4.0,51,0.00,,,0.00,weatherlink.com 1.10,2013-08-19 17:22:00,
2013-08-19 12:37:00,82.5,63.0,30.08,West,277,0.0,4.0,52,0.00,,,0.00,weatherlink.com 1.10,2013-08-19 17:37:00,
2013-08-19 13:07:00,85.3,63.0,30.08,NW,315,4.0,6.0,47,0.00,,,0.00,weatherlink.com 1.10,2013-08-19 18:07:00,
2013-08-19 13:22:00,86.7,63.0,30.07,WNW,286,0.0,7.0,45,0.00,,,0.00,weatherlink.com 1.10,2013-08-19 18:22:00,
2013-08-19 13:37:00,87.5,67.0,30.07,West,264,0.0,5.0,51,0.00,,,0.00,weatherlink.com 1.10,2013-08-19 18:37:00,
2013-08-19 13:52:00,87.8,67.0,30.07,WSW,238,1.0,4.0,51,0.00,,,0.00,weatherlink.com 1.10,2013-08-19 18:52:00,
2013-08-19 14:07:00,86.8,65.0,30.07,SSW,205,0.0,8.0,48,0.00,,,0.00,weatherlink.com 1.10,2013-08-19 19:07:00,
2013-08-19 14:23:00,85.4,64.0,30.06,WNW,283,2.0,6.0,49,0.00,,,0.00,weatherlink.com 1.10,2013-08-19 19:23:00,
2013-08-19 14:38:00,85.8,66.0,30.06,West,265,0.0,5.0,51,0.00,,,0.00,weatherlink.com 1.10,2013-08-19 19:38:00,
2013-08-19 14:53:00,85.5,64.0,30.06,SSW,204,0.0,5.0,48,0.00,,,0.00,weatherlink.com 1.10,2013-08-19 19:53:00,
2013-08-19 15:08:00,83.7,65.0,30.06,WNW,286,0.0,3.0,54,0.00,,,0.00,weatherlink.com 1.10,2013-08-19 20:08:00,
2013-08-19 15:23:00,84.5,66.0,30.05,SSW,206,0.0,4.0,54,0.00,,,0.00,weatherlink.com 1.10,2013-08-19 20:23:00,
2013-08-19 15:38:00,84.6,66.0,30.05,SSW,196,0.0,3.0,53,0.00,,,0.00,weatherlink.com 1.10,2013-08-19 20:38:00,
2013-08-19 15:53:00,84.3,63.0,30.05,West,272,0.0,5.0,49,0.00,,,0.00,weatherlink.com 1.10,2013-08-19 20:53:00,
2013-08-19 16:08:00,83.3,66.0,30.05,WSW,254,1.0,2.0,56,0.00,,,0.00,weatherlink.com 1.10,2013-08-19 21:08:00,
2013-08-19 16:23:00,83.2,65.0,30.04,West,273,0.0,7.0,55,0.00,,,0.00,weatherlink.com 1.10,2013-08-19 21:23:00,
2013-08-19 16:38:00,83.1,65.0,30.04,SSW,200,1.0,6.0,55,0.00,,,0.00,weatherlink.com 1.10,2013-08-19 21:38:00,
2013-08-19 16:53:00,83.6,68.0,30.04,West,265,0.0,3.0,59,0.00,,,0.00,weatherlink.com 1.10,2013-08-19 21:53:00,
2013-08-19 17:08:00,84.7,65.0,30.04,SW,235,0.0,2.0,51,0.00,,,0.00,weatherlink.com 1.10,2013-08-19 22:08:00,
2013-08-19 17:24:00,84.8,67.0,30.04,West,265,2.0,4.0,55,0.00,,,0.00,weatherlink.com 1.10,2013-08-19 22:24:00,
2013-08-19 17:38:00,84.6,67.0,30.03,West,261,2.0,3.0,55,0.00,,,0.00,weatherlink.com 1.10,2013-08-19 22:38:00,
2013-08-19 17:53:00,84.8,67.0,30.03,SSW,199,0.0,4.0,55,0.00,,,0.00,weatherlink.com 1.10,2013-08-19 22:53:00,
2013-08-19 18:08:00,84.7,67.0,30.02,SW,228,0.0,1.0,56,0.00,,,0.00,weatherlink.com 1.10,2013-08-19 23:08:00,
2013-08-19 18:23:00,82.1,66.0,30.02,SW,228,0.0,0.0,58,0.00,,,0.00,weatherlink.com 1.10,2013-08-19 23:23:00,
2013-08-19 18:38:00,79.2,67.0,30.01,SW,228,0.0,0.0,66,0.00,,,0.00,weatherlink.com 1.10,2013-08-19 23:38:00,
2013-08-19 18:53:00,76.6,65.0,30.01,SW,228,0.0,0.0,68,0.00,,,0.00,weatherlink.com 1.10,2013-08-19 23:53:00,
2013-08-19 19:08:00,74.4,65.0,30.01,SW,227,0.0,1.0,72,0.00,,,0.00,weatherlink.com 1.10,2013-08-20 00:08:00,
2013-08-19 19:23:00,73.1,65.0,30.02,SW,227,0.0,0.0,75,0.00,,,0.00,weatherlink.com 1.10,2013-08-20 00:23:00,
2013-08-19 19:38:00,72.0,64.0,30.02,SW,227,0.0,0.0,77,0.00,,,0.00,weatherlink.com 1.10,2013-08-20 00:38:00,
2013-08-19 19:53:00,71.1,64.0,30.02,SW,228,0.0,0.0,78,0.00,,,0.00,weatherlink.com 1.10,2013-08-20 00:53:00,
2013-08-19 20:08:00,70.8,64.0,30.02,SW,227,0.0,0.0,79,0.00,,,0.00,weatherlink.com 1.10,2013-08-20 01:08:00,
2013-08-19 20:23:00,69.6,64.0,30.03,SW,228,0.0,2.0,81,0.00,,,0.00,weatherlink.com 1.10,2013-08-20 01:23:00,
2013-08-19 20:38:00,68.3,63.0,30.03,SW,228,0.0,1.0,84,0.00,,,0.00,weatherlink.com 1.10,2013-08-20 01:38:00,
2013-08-19 20:53:00,67.2,63.0,30.03,SW,227,0.0,0.0,85,0.00,,,0.00,weatherlink.com 1.10,2013-08-20 01:53:00,
2013-08-19 21:08:00,66.7,63.0,30.04,SW,228,0.0,0.0,87,0.00,,,0.00,weatherlink.com 1.10,2013-08-20 02:08:00,
2013-08-19 21:23:00,66.3,62.0,30.04,SW,227,0.0,0.0,87,0.00,,,0.00,weatherlink.com 1.10,2013-08-20 02:23:00,
2013-08-19 21:38:00,65.6,62.0,30.05,SW,228,0.0,0.0,88,0.00,,,0.00,weatherlink.com 1.10,2013-08-20 02:38:00,
2013-08-19 21:53:00,65.8,63.0,30.04,SW,228,0.0,0.0,90,0.00,,,0.00,weatherlink.com 1.10,2013-08-20 02:53:00,
2013-08-19 22:08:00,65.9,63.0,30.05,SW,228,0.0,1.0,90,0.00,,,0.00,weatherlink.com 1.10,2013-08-20 03:08:00,
2013-08-19 22:23:00,65.6,63.0,30.05,SW,228,0.0,0.0,90,0.00,,,0.00,weatherlink.com 1.10,2013-08-20 03:23:00,
2013-08-19 22:38:00,65.8,63.0,30.05,SW,227,0.0,1.0,91,0.00,,,0.00,weatherlink.com 1.10,2013-08-20 03:38:00,
2013-08-19 22:53:00,65.1,62.0,30.06,SW,227,0.0,0.0,90,0.00,,,0.00,weatherlink.com 1.10,2013-08-20 03:53:00,
2013-08-19 23:08:00,65.1,63.0,30.06,SW,227,0.0,0.0,91,0.00,,,0.00,weatherlink.com 1.10,2013-08-20 04:08:00,
2013-08-19 23:23:00,64.6,62.0,30.06,SW,227,0.0,0.0,91,0.00,,,0.00,weatherlink.com 1.10,2013-08-20 04:23:00,
2013-08-19 23:38:00,64.3,62.0,30.06,SW,227,0.0,0.0,91,0.00,,,0.00,weatherlink.com 1.10,2013-08-20 04:38:00,
2013-08-19 23:53:00,64.1,62.0,30.06,SW,227,0.0,0.0,91,0.00,,,0.00,weatherlink.com 1.10,2013-08-20 04:53:00,